Elmendorf AFB, AK

4:10 PM AKDT on October 19, 2017 (GMT -0800)
Elmendorf Air Force Base

Weather History for PAED - June, 2013

Change the Weather History Date:

Thursday, June 13, 2013

  Actual Average Record
Temperature  
Mean Temperature 58 °F -  
Max Temperature 66 °F 61 °F 78 °F (1999)
Min Temperature 50 °F 47 °F 40 °F (2008)
Degree Days  
Heating Degree Days 7    
Growing Degree Days 8 (Base 50)    
Moisture  
Dew Point 45 °F    
Average Humidity 64    
Maximum Humidity 85    
Minimum Humidity 42    
Precipitation  
Precipitation 0.00 in - - ()
Sea Level Pressure  
Sea Level Pressure 30.06 in    
Wind  
Wind Speed 9 mph (West)    
Max Wind Speed 16 mph    
Max Gust Speed -    
Visibility 10 miles    
Events      
Averages and records for this station are not official NWS values.
T = Trace of Precipitation, MM = Missing Value Source: NWS Daily Summary

Daily Weather History Graph

Daily Weather History Graph

Search for Another Location

Airport or City:

Trip Planner

Search our weather history database for the weather conditions in past years. The results will help you decide how hot, cold, wet, or windy it might be!

Date:

Astronomy

Jun. 13, 2013 Rise Set
Actual Time 4:20 AM AKDT 11:38 PM AKDT
Civil Twilight 2:31 AM AKDT 1:27 AM AKDT
Nautical Twilight Sun does not rise Sun does not rise
Astronomical Twilight Sun does not rise Sun does not rise
Moon 10:32 AM AKDT (6/13) 12:59 AM AKDT (6/13)
Length of Visible Light 22h 55m
Length of Day
19h 17m
Waxing Crescent, 23% of the Moon is Illuminated
Jun 13
Waxing Crescent
Jun 16
First Quarter
Jun 23
Full
Jun 29
Last Quarter
Jul 7
New

Hourly Weather History & Observations

Time (AKDT) Temp. Dew Point Humidity Pressure Visibility Wind Dir Wind Speed Gust Speed Precip Events Conditions
12:55 AM 61.9 °F 38.7 °F 42% 29.97 in 10.0 mi SW 6.9 mph - N/A   Clear
1:55 AM 61.3 °F 38.1 °F 42% 29.99 in 10.0 mi WSW 11.5 mph - N/A   Clear
2:55 AM 59.5 °F 38.1 °F 45% 30.00 in 10.0 mi West 6.9 mph - N/A   Clear
3:55 AM 57.2 °F 40.3 °F 53% 30.00 in 10.0 mi WSW 8.1 mph - N/A   Clear
4:55 AM 56.1 °F 39.9 °F 55% 30.00 in 10.0 mi WSW 8.1 mph - N/A   Clear
5:55 AM 55.2 °F 40.3 °F 57% 30.01 in 10.0 mi SSW 4.6 mph - N/A   Clear
6:55 AM 56.8 °F 40.5 °F 54% 30.02 in 10.0 mi SW 10.4 mph - N/A   Clear
7:55 AM 59.2 °F 44.6 °F 58% 30.02 in 10.0 mi NW 8.1 mph - N/A   Clear
8:55 AM 57.6 °F 46.2 °F 66% 30.02 in 10.0 mi WNW 6.9 mph - N/A   Clear
9:54 AM 57.2 °F 46.4 °F 67% 30.03 in 10.0 mi WNW 9.2 mph - N/A   Scattered Clouds
9:55 AM 56.5 °F 46.0 °F 68% 30.03 in 10.0 mi WNW 9.2 mph - N/A   Scattered Clouds
10:55 AM 55.9 °F 45.9 °F 69% 30.04 in 10.0 mi West 9.2 mph - N/A   Overcast
11:55 AM 57.2 °F 46.8 °F 68% 30.06 in 10.0 mi WSW 5.8 mph - N/A   Mostly Cloudy
1:04 PM 55.4 °F 48.2 °F 77% 30.06 in 10.0 mi West 10.4 mph - N/A   Mostly Cloudy
1:25 PM 53.6 °F 48.2 °F 82% 30.06 in 10.0 mi SW 10.4 mph - N/A   Light Drizzle
1:39 PM 57.2 °F 48.2 °F 72% 30.07 in 10.0 mi West 6.9 mph - N/A   Scattered Clouds
1:55 PM 57.2 °F 48.2 °F 72% 30.07 in 10.0 mi Variable 5.8 mph - 0.00 in   Partly Cloudy
2:55 PM 62.8 °F 47.5 °F 57% 30.07 in 10.0 mi NNW 9.2 mph - N/A   Clear
3:55 PM 64.2 °F 48.7 °F 57% 30.08 in 10.0 mi NW 11.5 mph - N/A   Clear
4:55 PM 66.0 °F 48.0 °F 52% 30.09 in 10.0 mi Variable 3.5 mph - N/A   Clear
5:55 PM 64.9 °F 47.7 °F 54% 30.09 in 10.0 mi WNW 13.8 mph - N/A   Clear
6:55 PM 64.6 °F 48.0 °F 55% 30.09 in 10.0 mi West 13.8 mph - N/A   Clear
7:55 PM 59.0 °F 49.5 °F 71% 30.11 in 10.0 mi WSW 13.8 mph - N/A   Clear
8:55 PM 54.1 °F 47.8 °F 79% 30.13 in 10.0 mi WSW 16.1 mph - N/A   Clear
9:55 PM 52.0 °F 46.9 °F 83% 30.14 in 10.0 mi WSW 16.1 mph - N/A   Clear
10:55 PM 50.5 °F 45.9 °F 84% 30.16 in 10.0 mi West 13.8 mph - N/A   Clear
11:55 PM 51.1 °F 46.8 °F 85% 30.18 in 10.0 mi SSW 6.9 mph - N/A   Clear